sat.trackr.live / text

‹ back to catalog

ONEWEB-0613

NORAD 56071 · 2023-043AB

PAYLOAD ACTIVE UNKNOWN

§ Identity

Operator
Country
UK
Launch date
2023-03-26
Launch site
SRILR
Launch vehicle
Mass (kg)
RCS (m²)

Purposes: comms

External: N2YO · Heavens-Above · Gunter

§ Orbital elements

Epoch: 2026-05-25T01:22:54.778944Z

Period
109.46 min
Inclination
87.8988°
Eccentricity
0.0001640
Mean motion
13.15548536 rev/d
Perigee alt
1,200.5 km
Apogee alt
1,203.0 km
Semi-major
7,579.9 km
B*
-3.8750e-4
RAAN
263.8333°
Arg perigee
96.9208°
Mean anomaly
263.2109°
Rev number
15,339

§ Raw data

ONEWEB-06131 56071U 23043AB  26145.05757846 -.00000133  00000+0 -38750-3 0  99952 56071  87.8988 263.8333 0001640  96.9208 263.2109 13.15548536153397

JSON: /api/v1/satellites/56071 · /tle

For live sub-satellite position, see the globe view (requires WebGL).

§ Visibility from observer

Set your observer location to see the next 7 days of passes ≥ 10°. The values pass through the URL so the page stays shareable.

No JS? Fill the form by hand. The geolocation button needs JavaScript.